| time (UTC) | temp C | wind direction | speed KPH | gust KPH | rain 1hr cm | rain 24hr cm | rain mn cm | humidity % | barometer mb |
| 20260906011448 | 10 | 210 | 0.0 | 1.6 | 0.00 | 0.00 | 0.00 | 82 | 979.3 |
| 20260906011038 | 10 | 210 | 1.6 | 1.6 | 0.00 | 0.00 | 0.00 | 82 | 979.3 |
| 20260906010608 | 10 | 210 | 3.2 | 1.6 | 0.00 | 0.00 | 0.00 | 82 | 979.1 |
| 20260906010138 | 10 | 210 | 0.0 | 0.0 | 0.00 | 0.00 | 0.00 | 82 | 979.3 |
| 20260906005718 | 10 | 210 | 0.0 | 0.0 | 0.00 | 0.00 | 0.00 | 82 | 979.3 |
| 20260906005308 | 10 | 210 | 0.0 | 0.0 | 0.00 | 0.00 | 0.00 | 82 | 979.3 |
| 20260906004818 | 10 | 210 | 0.0 | 0.0 | 0.00 | 0.00 | 0.00 | 82 | 979.1 |
| 20260906004358 | 10 | 210 | 0.0 | 0.0 | 0.00 | 0.00 | 0.00 | 82 | 979.5 |
| 20260906003918 | 10 | 210 | 0.0 | 0.0 | 0.00 | 0.00 | 0.00 | 82 | 979.3 |
| 20260906003439 | 11 | 210 | 0.0 | 0.0 | 0.00 | 0.00 | 0.00 | 82 | 979.3 |
| 20260906003008 | 11 | 210 | 0.0 | 0.0 | 0.00 | 0.00 | 0.00 | 82 | 979.3 |
| 20260906002538 | 11 | 210 | 1.6 | 1.6 | 0.00 | 0.00 | 0.00 | 74 | 979.3 |
| 20260906002109 | 11 | 210 | 0.0 | 1.6 | 0.00 | 0.00 | 0.00 | 74 | 979.2 |
| 20260906001628 | 11 | 210 | 0.0 | 1.6 | 0.00 | 0.00 | 0.00 | 74 | 979.2 |
| 20260906001208 | 11 | 210 | 1.6 | 1.6 | 0.00 | 0.00 | 0.00 | 74 | 979.0 |
| 20260906000728 | 11 | 211 | 0.0 | 1.6 | 0.00 | 0.00 | 0.00 | 74 | 978.9 |
| 20260906000248 | 11 | 211 | 1.6 | 1.6 | 0.00 | 0.00 | 0.00 | 74 | 979.0 |
| 20260905235800 | 11 | 166 | 3.2 | 0.0 | 0.00 | 0.00 | 0.00 | 74 | 979.1 |
| 20260905235338 | 11 | 166 | 1.6 | 0.0 | 0.00 | 0.00 | 0.00 | 74 | 979.0 |
| 20260905234853 | 11 | 166 | 0.0 | 0.0 | 0.00 | 0.00 | 0.00 | 74 | 979.1 |
| 20260905234418 | 11 | 179 | 0.0 | 0.0 | 0.00 | 0.00 | 0.00 | 74 | 978.9 |
| 20260905233928 | 11 | 179 | 0.0 | 0.0 | 0.00 | 0.00 | 0.00 | 74 | 979.0 |
| 20260905233518 | 11 | 153 | 1.6 | 0.0 | 0.00 | 0.00 | 0.00 | 74 | 978.9 |
| 20260905233053 | 12 | 15 | 1.6 | 0.0 | 0.00 | 0.00 | 0.00 | 74 | 978.9 |
| 20260905232618 | 12 | 15 | 1.6 | 0.0 | 0.00 | 0.00 | 0.00 | 74 | 979.0 |
| 20260905232123 | 11 | 15 | 0.0 | 0.0 | 0.00 | 0.00 | 0.00 | 74 | 978.6 |
| 20260905231659 | 11 | 15 | 0.0 | 0.0 | 0.00 | 0.00 | 0.00 | 74 | 978.9 |
| 20260905231228 | 11 | 15 | 0.0 | 0.0 | 0.00 | 0.00 | 0.00 | 74 | 978.7 |
| 20260905230748 | 11 | 15 | 0.0 | 1.6 | 0.00 | 0.00 | 0.00 | 76 | 978.7 |
| 20260905230303 | 11 | 15 | 0.0 | 0.0 | 0.00 | 0.00 | 0.00 | 76 | 978.8 |
| 20260905225828 | 12 | 15 | 0.0 | 0.0 | 0.00 | 0.00 | 0.00 | 73 | 978.8 |
| 20260905225358 | 12 | 15 | 1.6 | 1.6 | 0.00 | 0.00 | 0.00 | 73 | 978.7 |
| 20260905224938 | 12 | 15 | 0.0 | 1.6 | 0.00 | 0.00 | 0.00 | 72 | 978.5 |
| 20260905224458 | 12 | 15 | 0.0 | 1.6 | 0.00 | 0.00 | 0.00 | 72 | 978.6 |
| 20260905224038 | 12 | 15 | 0.0 | 1.6 | 0.00 | 0.00 | 0.00 | 71 | 978.6 |
| 20260905223543 | 13 | 24 | 0.0 | 0.0 | 0.00 | 0.00 | 0.00 | 71 | 978.4 |
| 20260905223058 | 13 | 24 | 0.0 | 1.6 | 0.00 | 0.00 | 0.00 | 69 | 978.6 |
| 20260905222613 | 13 | 2 | 0.0 | 1.6 | 0.00 | 0.00 | 0.00 | 60 | 978.5 |
| 20260905222148 | 13 | 2 | 0.0 | 1.6 | 0.00 | 0.00 | 0.00 | 60 | 978.5 |
| 20260905221653 | 12 | 2 | 1.6 | 1.6 | 0.00 | 0.00 | 0.00 | 60 | 978.3 |
| 20260905221223 | 12 | 294 | 1.6 | 1.6 | 0.00 | 0.00 | 0.00 | 60 | 978.3 |
| 20260905220748 | 12 | 294 | 3.2 | 4.8 | 0.00 | 0.00 | 0.00 | 60 | 978.3 |
| 20260905220318 | 12 | 294 | 3.2 | 1.6 | 0.00 | 0.00 | 0.00 | 60 | 978.2 |
| 20260905215833 | 12 | 294 | 1.6 | 4.8 | 0.00 | 0.00 | 0.00 | 60 | 978.1 |
| 20260905215418 | 12 | 293 | 3.2 | 4.8 | 0.00 | 0.00 | 0.00 | 60 | 978.3 |
| 20260905214948 | 12 | 293 | 1.6 | 4.8 | 0.00 | 0.00 | 0.00 | 60 | 978.5 |
| 20260905214513 | 13 | 293 | 1.6 | 4.8 | 0.00 | 0.00 | 0.00 | 60 | 978.4 |
| 20260905214023 | 13 | 293 | 1.6 | 4.8 | 0.00 | 0.00 | 0.00 | 60 | 978.3 |
| 20260905213553 | 13 | 293 | 1.6 | 4.8 | 0.00 | 0.00 | 0.00 | 60 | 978.5 |
| 20260905213118 | 13 | 292 | 4.8 | 4.8 | 0.00 | 0.00 | 0.00 | 60 | 978.2 |
| 20260905212658 | 13 | 339 | 4.8 | 4.8 | 0.00 | 0.00 | 0.00 | 60 | 978.3 |
| 20260905212218 | 14 | 339 | 1.6 | 1.6 | 0.00 | 0.00 | 0.00 | 60 | 978.3 |
| 20260905211738 | 14 | 339 | 1.6 | 1.6 | 0.00 | 0.00 | 0.00 | 60 | 978.3 |
| 20260905211318 | 14 | 339 | 0.0 | 1.6 | 0.00 | 0.00 | 0.00 | 60 | 978.1 |
| 20260905210858 | 15 | 339 | 0.0 | 1.6 | 0.00 | 0.00 | 0.00 | 60 | 978.3 |
| 20260905210428 | 15 | 339 | 0.0 | 1.6 | 0.00 | 0.00 | 0.00 | 60 | 978.1 |
| 20260905205948 | 15 | 339 | 0.0 | 1.6 | 0.00 | 0.00 | 0.00 | 60 | 978.0 |
| 20260905205523 | 15 | 339 | 0.0 | 1.6 | 0.00 | 0.00 | 0.00 | 60 | 978.0 |
| 20260905205048 | 15 | 339 | 1.6 | 1.6 | 0.00 | 0.00 | 0.00 | 60 | 978.0 |
| 20260905204633 | 15 | 339 | 0.0 | 1.6 | 0.00 | 0.00 | 0.00 | 56 | 977.9 |
| 20260905204158 | 16 | 339 | 0.0 | 1.6 | 0.00 | 0.00 | 0.00 | 56 | 978.0 |
| 20260905203728 | 16 | 339 | 0.0 | 1.6 | 0.00 | 0.00 | 0.00 | 56 | 977.8 |
| 20260905203243 | 16 | 340 | 8.0 | 4.8 | 0.00 | 0.00 | 0.00 | 56 | 978.0 |
| 20260905202818 | 16 | 340 | 8.0 | 4.8 | 0.00 | 0.00 | 0.00 | 56 | 977.7 |
| 20260905202343 | 16 | 295 | 8.0 | 8.0 | 0.00 | 0.00 | 0.00 | 56 | 977.7 |
| 20260905201913 | 16 | 295 | 8.0 | 8.0 | 0.00 | 0.00 | 0.00 | 54 | 977.7 |
| 20260905201443 | 16 | 295 | 8.0 | 8.0 | 0.00 | 0.00 | 0.00 | 54 | 977.4 |
| 20260905201008 | 16 | 348 | 3.2 | 20.9 | 0.00 | 0.00 | 0.00 | 54 | 977.8 |
| 20260905200559 | 16 | 348 | 8.0 | 20.9 | 0.00 | 0.00 | 0.00 | 54 | 977.7 |
| 20260905200139 | 16 | 348 | 8.0 | 4.8 | 0.00 | 0.00 | 0.00 | 54 | 977.5 |
| 20260905195718 | 16 | 348 | 6.4 | 4.8 | 0.00 | 0.00 | 0.00 | 54 | 977.5 |
| 20260905195306 | 16 | 348 | 6.4 | 4.8 | 0.00 | 0.00 | 0.00 | 54 | 977.4 |
| 20260905194843 | 16 | 348 | 6.4 | 4.8 | 0.00 | 0.00 | 0.00 | 54 | 977.3 |
| 20260905194408 | 16 | 303 | 6.4 | 14.5 | 0.00 | 0.00 | 0.00 | 54 | 977.3 |
| 20260905193948 | 16 | 303 | 6.4 | 14.5 | 0.00 | 0.00 | 0.00 | 54 | 977.6 |
| 20260905193503 | 16 | 303 | 6.4 | 14.5 | 0.00 | 0.00 | 0.00 | 54 | 977.2 |
| 20260905193038 | 16 | 303 | 4.8 | 11.3 | 0.00 | 0.00 | 0.00 | 54 | 977.3 |
| 20260905192609 | 16 | 303 | 8.0 | 11.3 | 0.00 | 0.00 | 0.00 | 54 | 977.3 |
| 20260905192138 | 16 | 303 | 4.8 | 11.3 | 0.00 | 0.00 | 0.00 | 54 | 977.2 |
| 20260905191733 | 17 | 303 | 4.8 | 11.3 | 0.00 | 0.00 | 0.00 | 54 | 977.3 |
| 20260905191259 | 17 | 329 | 4.8 | 8.0 | 0.00 | 0.00 | 0.00 | 54 | 977.2 |
| 20260905190828 | 17 | 347 | 4.8 | 11.3 | 0.00 | 0.00 | 0.00 | 54 | 977.4 |
| 20260905190338 | 17 | 347 | 6.4 | 8.0 | 0.00 | 0.00 | 0.00 | 47 | 977.3 |
| 20260905185908 | 17 | 345 | 6.4 | 8.0 | 0.00 | 0.00 | 0.00 | 47 | 977.4 |
| 20260905185433 | 17 | 345 | 1.6 | 4.8 | 0.00 | 0.00 | 0.00 | 47 | 977.3 |
| 20260905185003 | 17 | 345 | 3.2 | 8.0 | 0.00 | 0.00 | 0.00 | 47 | 977.1 |
| 20260905184533 | 17 | 345 | 0.0 | 8.0 | 0.00 | 0.00 | 0.00 | 47 | 977.2 |
| 20260905184108 | 17 | 345 | 6.4 | 11.3 | 0.00 | 0.00 | 0.00 | 47 | 977.1 |
| 20260905183648 | 17 | 345 | 6.4 | 11.3 | 0.00 | 0.00 | 0.00 | 47 | 977.0 |
| 20260905183238 | 17 | 345 | 6.4 | 4.8 | 0.00 | 0.00 | 0.00 | 47 | 977.1 |
| 20260905182808 | 17 | 345 | 6.4 | 4.8 | 0.00 | 0.00 | 0.00 | 47 | 976.9 |
| 20260905182353 | 17 | 337 | 6.4 | 14.5 | 0.00 | 0.00 | 0.00 | 47 | 976.8 |
| 20260905181943 | 17 | 337 | 6.4 | 14.5 | 0.00 | 0.00 | 0.00 | 47 | 977.0 |
| 20260905181458 | 18 | 337 | 8.0 | 11.3 | 0.00 | 0.00 | 0.00 | 47 | 976.8 |
| 20260905181018 | 18 | 330 | 8.0 | 14.5 | 0.00 | 0.00 | 0.00 | 47 | 976.6 |
| 20260905180538 | 18 | 330 | 6.4 | 14.5 | 0.00 | 0.00 | 0.00 | 47 | 976.5 |
| 20260905180128 | 18 | 330 | 9.7 | 11.3 | 0.00 | 0.00 | 0.00 | 47 | 976.5 |
| 20260905175658 | 18 | 330 | 8.0 | 14.5 | 0.00 | 0.00 | 0.00 | 47 | 976.4 |
| 20260905175223 | 18 | 330 | 8.0 | 14.5 | 0.00 | 0.00 | 0.00 | 47 | 976.3 |
| 20260905174748 | 18 | 330 | 8.0 | 11.3 | 0.00 | 0.00 | 0.00 | 47 | 976.3 |
| 20260905174327 | 18 | 0 | 6.4 | 11.3 | 0.00 | 0.00 | 0.00 | 47 | 976.3 |
| 20260905173904 | 20 | 0 | 6.4 | 17.7 | 0.00 | 0.00 | 0.00 | 47 | 976.2 |
| 20260905173458 | 20 | 0 | 8.0 | 14.5 | 0.00 | 0.00 | 0.00 | 47 | 976.2 |
| 20260905173028 | 20 | 0 | 11.3 | 20.9 | 0.00 | 0.00 | 0.00 | 47 | 976.2 |
| 20260905172548 | 20 | 336 | 9.7 | 14.5 | 0.00 | 0.00 | 0.00 | 45 | 976.1 |
| 20260905172113 | 20 | 355 | 9.7 | 17.7 | 0.00 | 0.00 | 0.00 | 45 | 976.1 |
| 20260905171643 | 20 | 345 | 8.0 | 17.7 | 0.00 | 0.00 | 0.00 | 45 | 976.1 |
| 20260905171212 | 20 | 345 | 14.5 | 17.7 | 0.00 | 0.00 | 0.00 | 42 | 976.0 |
| 20260905170748 | 20 | 4 | 14.5 | 35.4 | 0.00 | 0.00 | 0.00 | 42 | 976.0 |
| 20260905170338 | 21 | 4 | 14.5 | 35.4 | 0.00 | 0.00 | 0.00 | 42 | 976.0 |
| 20260905165924 | 21 | 340 | 8.0 | 20.9 | 0.00 | 0.00 | 0.00 | 42 | 975.9 |
| 20260905165438 | 21 | 340 | 8.0 | 22.5 | 0.00 | 0.00 | 0.00 | 42 | 975.9 |
| 20260905165018 | 21 | 356 | 8.0 | 32.2 | 0.00 | 0.00 | 0.00 | 42 | 975.8 |
| 20260905164533 | 21 | 356 | 17.7 | 25.7 | 0.00 | 0.00 | 0.00 | 42 | 976.0 |
| 20260905164113 | 21 | 356 | 17.7 | 25.7 | 0.00 | 0.00 | 0.00 | 42 | 975.8 |
| 20260905163628 | 21 | 356 | 17.7 | 37.0 | 0.00 | 0.00 | 0.00 | 41 | 975.8 |
| 20260905163153 | 21 | 307 | 19.3 | 32.2 | 0.00 | 0.00 | 0.00 | 41 | 975.8 |
| 20260905162733 | 21 | 307 | 11.3 | 32.2 | 0.00 | 0.00 | 0.00 | 41 | 975.6 |
| 20260905162305 | 21 | 293 | 11.3 | 29.0 | 0.00 | 0.00 | 0.00 | 41 | 975.6 |
| 20260905161833 | 21 | 346 | 11.3 | 22.5 | 0.00 | 0.00 | 0.00 | 41 | 975.5 |
| 20260905161418 | 21 | 274 | 11.3 | 25.7 | 0.00 | 0.00 | 0.00 | 41 | 975.2 |
| 20260905161003 | 21 | 349 | 11.3 | 25.7 | 0.00 | 0.00 | 0.00 | 41 | 975.1 |
| 20260905160538 | 21 | 349 | 11.3 | 25.7 | 0.00 | 0.00 | 0.00 | 41 | 975.2 |
| 20260905155643 | 21 | 356 | 14.5 | 49.9 | 0.00 | 0.00 | 0.00 | 41 | 975.1 |
| 20260905155153 | 21 | 335 | 6.4 | 32.2 | 0.00 | 0.00 | 0.00 | 41 | 975.2 |
| 20260905154723 | 21 | 352 | 16.1 | 29.0 | 0.00 | 0.00 | 0.00 | 41 | 975.0 |
| 20260905154238 | 21 | 352 | 17.7 | 29.0 | 0.00 | 0.00 | 0.00 | 41 | 975.0 |
| 20260905153758 | 21 | 358 | 20.9 | 49.9 | 0.00 | 0.00 | 0.00 | 41 | 974.9 |
| 20260905153327 | 21 | 339 | 22.5 | 20.9 | 0.00 | 0.00 | 0.00 | 41 | 975.0 |
| 20260905152843 | 21 | 350 | 22.5 | 37.0 | 0.00 | 0.00 | 0.00 | 41 | 974.9 |
| 20260905152403 | 21 | 347 | 22.5 | 32.2 | 0.00 | 0.00 | 0.00 | 40 | 974.7 |
| 20260905151948 | 21 | 5 | 22.5 | 32.2 | 0.00 | 0.00 | 0.00 | 40 | 975.0 |
| 20260905151533 | 21 | 358 | 25.7 | 37.0 | 0.00 | 0.00 | 0.00 | 40 | 974.9 |
| 20260905151118 | 21 | 287 | 22.5 | 37.0 | 0.00 | 0.00 | 0.00 | 40 | 974.7 |
| 20260905150643 | 21 | 242 | 12.9 | 37.0 | 0.00 | 0.00 | 0.00 | 40 | 974.7 |
| 20260905150208 | 21 | 9 | 12.9 | 35.4 | 0.00 | 0.00 | 0.00 | 40 | 974.9 |
| 20260905145748 | 21 | 284 | 24.1 | 35.4 | 0.00 | 0.00 | 0.00 | 40 | 974.6 |
| 20260905145308 | 21 | 284 | 20.9 | 49.9 | 0.00 | 0.00 | 0.00 | 40 | 974.5 |
| 20260905144858 | 21 | 284 | 20.9 | 40.2 | 0.00 | 0.00 | 0.00 | 40 | 974.4 |
| 20260905144413 | 21 | 286 | 11.3 | 22.5 | 0.00 | 0.00 | 0.00 | 40 | 974.6 |
| 20260905143923 | 21 | 330 | 30.6 | 35.4 | 0.00 | 0.00 | 0.00 | 40 | 974.4 |
| 20260905143513 | 21 | 330 | 14.5 | 32.2 | 0.00 | 0.00 | 0.00 | 40 | 974.5 |
| 20260905143103 | 22 | 11 | 14.5 | 29.0 | 0.00 | 0.00 | 0.00 | 40 | 974.4 |
| 20260905142638 | 22 | 305 | 14.5 | 40.2 | 0.00 | 0.00 | 0.00 | 39 | 974.2 |
| 20260905142153 | 21 | 305 | 20.9 | 46.7 | 0.00 | 0.00 | 0.00 | 41 | 974.7 |
| 20260905141718 | 21 | 91 | 22.5 | 25.7 | 0.00 | 0.00 | 0.00 | 41 | 974.6 |
| 20260905141238 | 21 | 9 | 30.6 | 54.7 | 0.00 | 0.00 | 0.00 | 100 | |
| 20260905140818 | 21 | 282 | 25.7 | 35.4 | 0.00 | 0.00 | 0.00 | 42 | 974.6 |
| 20260905140333 | 21 | 263 | 17.7 | 43.5 | 0.00 | 0.00 | 0.00 | 42 | 974.6 |
| 20260905135838 | 21 | 347 | 11.3 | 29.0 | 0.00 | 0.00 | 0.00 | 42 | 974.4 |
| 20260905135353 | 21 | 8 | 0.0 | 32.2 | 0.00 | 0.00 | 0.00 | 42 | 974.3 |
| 20260905134908 | 21 | 0 | 0.0 | 64.4 | 0.00 | 0.00 | 0.00 | 42 | 974.3 |
| 20260905134428 | 21 | 0 | 0.0 | 37.0 | 0.00 | 0.00 | 0.00 | 43 | 974.4 |
| 20260905133948 | 21 | 329 | 16.1 | 14.5 | 0.00 | 0.00 | 0.00 | 46 | 974.2 |
| 20260905133533 | 21 | 319 | 16.1 | 43.5 | 0.00 | 0.00 | 0.00 | 46 | 974.3 |
| 20260905133108 | 20 | 298 | 16.1 | 17.7 | 0.00 | 0.00 | 0.00 | 46 | 974.2 |
| 20260905132658 | 20 | 319 | 16.1 | 53.1 | 0.00 | 0.00 | 0.00 | 46 | 974.4 |
| 20260905132213 | 21 | 236 | 12.9 | 25.7 | 0.00 | 0.00 | 0.00 | 46 | 973.9 |
| 20260905131748 | 21 | 312 | 20.9 | 54.7 | 0.00 | 0.00 | 0.00 | 45 | 974.1 |
| 20260905131303 | 21 | 343 | 38.6 | 54.7 | 0.00 | 0.00 | 0.00 | 45 | 974.2 |
| 20260905130813 | 21 | 21 | 35.4 | 29.0 | 0.00 | 0.00 | 0.00 | 46 | 974.2 |
| 20260905130333 | 21 | 352 | 22.5 | 22.5 | 0.00 | 0.00 | 0.00 | 46 | 974.2 |
| 20260905125843 | 21 | 300 | 22.5 | 32.2 | 0.00 | 0.00 | 0.00 | 47 | 974.1 |
| 20260905125423 | 21 | 21 | 14.5 | 0.0 | 0.00 | 0.00 | 0.00 | 46 | 974.2 |
| 20260905124958 | 21 | 303 | 9.7 | 20.9 | 0.00 | 0.00 | 0.00 | 45 | 974.2 |
| 20260905124528 | 21 | 324 | 12.9 | 57.9 | 0.00 | 0.00 | 0.00 | 45 | 974.1 |
| 20260905124048 | 21 | 204 | 27.4 | 25.7 | 0.00 | 0.00 | 0.00 | 45 | 974.1 |
| 20260905123613 | 21 | 120 | 25.7 | 29.0 | 0.00 | 0.00 | 0.00 | 50 | 973.9 |
| 20260905123118 | 21 | 310 | 17.7 | 25.7 | 0.00 | 0.00 | 0.00 | 50 | 974.2 |
| 20260905122648 | 21 | 310 | 27.4 | 25.7 | 0.00 | 0.00 | 0.00 | 50 | 974.0 |
| 20260905122208 | 20 | 15 | 12.9 | 32.2 | 0.00 | 0.00 | 0.00 | 50 | 974.3 |
| 20260905121733 | 20 | 271 | 22.5 | 32.2 | 0.00 | 0.00 | 0.00 | 50 | 974.3 |
| 20260905121258 | 20 | 265 | 11.3 | 35.4 | 0.00 | 0.00 | 0.00 | 49 | 974.4 |
| 20260905120828 | 20 | 316 | 11.3 | 25.7 | 0.00 | 0.00 | 0.00 | 52 | 974.0 |
| 20260905120358 | 20 | 263 | 11.3 | 43.5 | 0.00 | 0.00 | 0.00 | 52 | 973.9 |
| 20260905115913 | 20 | 134 | 11.3 | 40.2 | 0.00 | 0.00 | 0.00 | 52 | 974.3 |
| 20260905115428 | 20 | 134 | 14.5 | 43.5 | 0.00 | 0.00 | 0.00 | 52 | 974.3 |
| 20260905114943 | 20 | 302 | 14.5 | 40.2 | 0.00 | 0.00 | 0.00 | 52 | 974.0 |
| 20260905114518 | 20 | 339 | 8.0 | 37.0 | 0.00 | 0.00 | 0.00 | 52 | 974.1 |
| 20260905114058 | 20 | 304 | 8.0 | 29.0 | 0.00 | 0.00 | 0.00 | 53 | 974.1 |
| 20260905113633 | 20 | 311 | 9.7 | 22.5 | 0.00 | 0.00 | 0.00 | 53 | 974.4 |
| 20260905113148 | 19 | 321 | 22.5 | 20.9 | 0.00 | 0.00 | 0.00 | 53 | 974.3 |
| 20260905112733 | 19 | 344 | 12.9 | 37.0 | 0.00 | 0.00 | 0.00 | 57 | 974.3 |
| 20260905112318 | 19 | 341 | 19.3 | 37.0 | 0.00 | 0.00 | 0.00 | 57 | 974.5 |
| 20260905111853 | 19 | 4 | 14.5 | 40.2 | 0.00 | 0.00 | 0.00 | 57 | 974.5 |
| 20260905111439 | 19 | 152 | 14.5 | 29.0 | 0.00 | 0.00 | 0.00 | 57 | 974.4 |
| 20260905110948 | 19 | 152 | 16.1 | 32.2 | 0.00 | 0.00 | 0.00 | 57 | 974.6 |
| 20260905110518 | 20 | 346 | 16.1 | 37.0 | 0.00 | 0.00 | 0.00 | 57 | 974.5 |
| 20260905110038 | 20 | 346 | 16.1 | 43.5 | 0.00 | 0.00 | 0.00 | 57 | 974.6 |
| 20260905105613 | 19 | 346 | 11.3 | 20.9 | 0.00 | 0.00 | 0.00 | 57 | 974.4 |
| 20260905105143 | 19 | 244 | 25.7 | 22.5 | 0.00 | 0.00 | 0.00 | 55 | 974.5 |
| 20260905104713 | 19 | 273 | 24.1 | 25.7 | 0.00 | 0.00 | 0.00 | 55 | 974.7 |
| 20260905104223 | 19 | 273 | 11.3 | 29.0 | 0.00 | 0.00 | 0.00 | 57 | 974.6 |
| 20260905103738 | 19 | 318 | 17.7 | 37.0 | 0.00 | 0.00 | 0.00 | 57 | 974.6 |
| 20260905103318 | 19 | 1 | 17.7 | 32.2 | 0.00 | 0.00 | 0.00 | 57 | 974.5 |
| 20260905102838 | 18 | 355 | 3.2 | 25.7 | 0.00 | 0.00 | 0.00 | 57 | 974.6 |
| 20260905102413 | 18 | 264 | 3.2 | 37.0 | 0.00 | 0.00 | 0.00 | 58 | 974.7 |
| 20260905101948 | 19 | 12 | 9.7 | 37.0 | 0.00 | 0.00 | 0.00 | 58 | 974.6 |
| 20260905101523 | 19 | 302 | 9.7 | 37.0 | 0.00 | 0.00 | 0.00 | 58 | 974.6 |
| 20260905101118 | 19 | 302 | 11.3 | 22.5 | 0.00 | 0.00 | 0.00 | 62 | 974.7 |
| 20260905100703 | 19 | 321 | 22.5 | 20.9 | 0.00 | 0.00 | 0.00 | 62 | 974.6 |
| 20260905100238 | 19 | 323 | 11.3 | 25.7 | 0.00 | 0.00 | 0.00 | 62 | 974.6 |
| 20260905095818 | 18 | 323 | 12.9 | 17.7 | 0.00 | 0.00 | 0.00 | 62 | 974.7 |
| 20260905095348 | 18 | 323 | 6.4 | 29.0 | 0.00 | 0.00 | 0.00 | 62 | 974.7 |
| 20260905094853 | 18 | 323 | 9.7 | 29.0 | 0.00 | 0.00 | 0.00 | 62 | 974.6 |
| 20260905094428 | 18 | 0 | 3.2 | 25.7 | 0.00 | 0.00 | 0.00 | 62 | 974.6 |
| 20260905093958 | 18 | 0 | 11.3 | 14.5 | 0.00 | 0.00 | 0.00 | 62 | 974.6 |
| 20260905093548 | 18 | 0 | 11.3 | 0.0 | 0.00 | 0.00 | 0.00 | 100 | 974.6 |
| 20260905093110 | 18 | 319 | 6.4 | 25.7 | 0.00 | 0.00 | 0.00 | 67 | 974.6 |
| 20260905092648 | 18 | 184 | 6.4 | 17.7 | 0.00 | 0.00 | 0.00 | 67 | 974.7 |
| 20260905092208 | 18 | 343 | 14.5 | 20.9 | 0.00 | 0.00 | 0.00 | 67 | 974.5 |
| 20260905091743 | 17 | 165 | 14.5 | 29.0 | 0.00 | 0.00 | 0.00 | 67 | 974.6 |
| 20260905091308 | 17 | 247 | 1.6 | 32.2 | 0.00 | 0.00 | 0.00 | 67 | 974.6 |
| 20260905090828 | 17 | 289 | 12.9 | 17.7 | 0.00 | 0.00 | 0.00 | 67 | 974.4 |
| 20260905090359 | 17 | 275 | 12.9 | 8.0 | 0.00 | 0.00 | 0.00 | 67 | 974.7 |
| 20260905085943 | 16 | 278 | 8.0 | 8.0 | 0.00 | 0.00 | 0.00 | 67 | 974.8 |
| 20260905085448 | 16 | 352 | 9.7 | 20.9 | 0.00 | 0.00 | 0.00 | 67 | 974.4 |
| 20260905085028 | 17 | 317 | 9.7 | 29.0 | 0.00 | 0.00 | 0.00 | 67 | 974.4 |
| 20260905084548 | 17 | 317 | 9.7 | 32.2 | 0.00 | 0.00 | 0.00 | 64 | 974.5 |
| 20260905084123 | 17 | 317 | 19.3 | 32.2 | 0.00 | 0.00 | 0.00 | 64 | 974.5 |
| 20260905083718 | 17 | 213 | 6.4 | 22.5 | 0.00 | 0.00 | 0.00 | 69 | 974.5 |
| 20260905083253 | 17 | 223 | 6.4 | 22.5 | 0.00 | 0.00 | 0.00 | 69 | 974.5 |
| 20260905082838 | 16 | 307 | 3.2 | 17.7 | 0.00 | 0.00 | 0.00 | 69 | 974.4 |
| 20260905082408 | 16 | 279 | 14.5 | 11.3 | 0.00 | 0.00 | 0.00 | 75 | 974.4 |
| 20260905081918 | 16 | 311 | 14.5 | 25.7 | 0.00 | 0.00 | 0.00 | 75 | 974.5 |
| 20260905081458 | 16 | 311 | 14.5 | 25.7 | 0.00 | 0.00 | 0.00 | 75 | 974.5 |
| 20260905081043 | 16 | 314 | 14.5 | 25.7 | 0.00 | 0.00 | 0.00 | 75 | 974.2 |
| 20260905080618 | 16 | 266 | 19.3 | 32.2 | 0.00 | 0.00 | 0.00 | 75 | 974.3 |
| 20260905080158 | 16 | 328 | 6.4 | 8.0 | 0.00 | 0.00 | 0.00 | 75 | 974.4 |
| 20260905075744 | 16 | 328 | 6.4 | 8.0 | 0.00 | 0.00 | 0.00 | 80 | 974.3 |
| 20260905075318 | 16 | 322 | 6.4 | 8.0 | 0.00 | 0.00 | 0.00 | 80 | 974.4 |
| 20260905074853 | 15 | 322 | 6.4 | 14.5 | 0.00 | 0.00 | 0.00 | 80 | 974.1 |
| 20260905074433 | 15 | 118 | 6.4 | 11.3 | 0.00 | 0.00 | 0.00 | 80 | 974.0 |
| 20260905074028 | 15 | 312 | 8.0 | 25.7 | 0.00 | 0.00 | 0.00 | 80 | 974.2 |
| 20260905073548 | 15 | 319 | 8.0 | 20.9 | 0.00 | 0.00 | 0.00 | 80 | 974.1 |
| 20260905073128 | 16 | 319 | 8.0 | 17.7 | 0.00 | 0.00 | 0.00 | 79 | 974.1 |
| 20260905072653 | 16 | 292 | 8.0 | 22.5 | 0.00 | 0.00 | 0.00 | 80 | 973.9 |
| 20260905072153 | 16 | 304 | 6.4 | 22.5 | 0.00 | 0.00 | 0.00 | 80 | 974.0 |
| 20260905071723 | 16 | 113 | 9.7 | 20.9 | 0.00 | 0.00 | 0.00 | 80 | 973.9 |
| 20260905071243 | 16 | 281 | 6.4 | 20.9 | 0.00 | 0.00 | 0.00 | 80 | 974.0 |
| 20260905070833 | 15 | 310 | 6.4 | 8.0 | 0.00 | 0.00 | 0.00 | 80 | 974.0 |
| 20260905070411 | 15 | 285 | 6.4 | 14.5 | 0.00 | 0.00 | 0.00 | 80 | 973.8 |
| 20260905070000 | 15 | 334 | 6.4 | 14.5 | 0.00 | 0.00 | 0.00 | 80 | 973.8 |
| 20260905065548 | 15 | 334 | 6.4 | 14.5 | 0.00 | 0.00 | 0.00 | 80 | 974.1 |
| 20260905065113 | 16 | 335 | 6.4 | 14.5 | 0.00 | 0.00 | 0.00 | 80 | 973.8 |
| 20260905064658 | 15 | 261 | 8.0 | 11.3 | 0.00 | 0.00 | 0.00 | 87 | 973.7 |
| 20260905064223 | 15 | 271 | 6.4 | 8.0 | 0.00 | 0.00 | 0.00 | 87 | 973.8 |
| 20260905063803 | 15 | 71 | 1.6 | 11.3 | 0.00 | 0.00 | 0.00 | 87 | 973.6 |
| 20260905063328 | 14 | 327 | 4.8 | 8.0 | 0.00 | 0.00 | 0.00 | 87 | 973.7 |
| 20260905062833 | 14 | 322 | 4.8 | 8.0 | 0.00 | 0.00 | 0.00 | 87 | 973.7 |
| 20260905062358 | 14 | 111 | 4.8 | 4.8 | 0.00 | 0.00 | 0.00 | 87 | 973.7 |
| 20260905061903 | 14 | 149 | 1.6 | 11.3 | 0.00 | 0.00 | 0.00 | 87 | 973.6 |
| 20260905061458 | 14 | 1 | 1.6 | 1.6 | 0.00 | 0.00 | 0.00 | 87 | 973.5 |
| 20260905061028 | 13 | 1 | 8.0 | 14.5 | 0.00 | 0.00 | 0.00 | 87 | 973.3 |
| 20260905060553 | 14 | 1 | 1.6 | 14.5 | 0.00 | 0.00 | 0.00 | 87 | 973.4 |
| 20260905060138 | 14 | 228 | 1.6 | 8.0 | 0.00 | 0.00 | 0.00 | 83 | 973.1 |
| 20260905055639 | 13 | 228 | 1.6 | 8.0 | 0.00 | 0.00 | 0.00 | 83 | 973.2 |
| 20260905055148 | 13 | 228 | 3.2 | 8.0 | 0.00 | 0.00 | 0.00 | 83 | 973.3 |
| 20260905054713 | 13 | 228 | 1.6 | 8.0 | 0.00 | 0.00 | 0.00 | 83 | 973.0 |
| 20260905054253 | 13 | 258 | 1.6 | 11.3 | 0.00 | 0.00 | 0.00 | 83 | 973.1 |
| 20260905053810 | 13 | 182 | 1.6 | 11.3 | 0.00 | 0.00 | 0.00 | 83 | 973.2 |
| 20260905053339 | 13 | 182 | 1.6 | 11.3 | 0.00 | 0.00 | 0.00 | 83 | 973.1 |
| 20260905052843 | 13 | 182 | 4.8 | 4.8 | 0.00 | 0.00 | 0.00 | 83 | 973.2 |
| 20260905052351 | 13 | 182 | 4.8 | 11.3 | 0.00 | 0.00 | 0.00 | 83 | 973.0 |
| 20260905051918 | 13 | 182 | 1.6 | 8.0 | 0.00 | 0.00 | 0.00 | 83 | 973.0 |
| 20260905051423 | 13 | 336 | 1.6 | 11.3 | 0.00 | 0.00 | 0.00 | 83 | 973.1 |
| 20260905050958 | 13 | 336 | 1.6 | 11.3 | 0.00 | 0.00 | 0.00 | 83 | 973.0 |
| 20260905050523 | 13 | 336 | 0.0 | 11.3 | 0.00 | 0.00 | 0.00 | 83 | 972.9 |
| 20260905050053 | 13 | 351 | 1.6 | 1.6 | 0.00 | 0.00 | 0.00 | 83 | 972.6 |
| 20260905045623 | 13 | 351 | 0.0 | 1.6 | 0.00 | 0.00 | 0.00 | 83 | 972.8 |
| 20260905045158 | 13 | 188 | 0.0 | 1.6 | 0.00 | 0.00 | 0.00 | 83 | 972.5 |
| 20260905044738 | 13 | 188 | 0.0 | 1.6 | 0.00 | 0.00 | 0.00 | 83 | 972.5 |
| 20260905044253 | 13 | 188 | 1.6 | 4.8 | 0.00 | 0.00 | 0.00 | 83 | 972.4 |
| 20260905043803 | 13 | 188 | 1.6 | 4.8 | 0.00 | 0.00 | 0.00 | 83 | 972.3 |
| 20260905043333 | 13 | 188 | 0.0 | 1.6 | 0.00 | 0.00 | 0.00 | 86 | 972.4 |
| 20260905042908 | 13 | 188 | 0.0 | 1.6 | 0.00 | 0.00 | 0.00 | 86 | 972.3 |
| 20260905042443 | 13 | 188 | 0.0 | 1.6 | 0.00 | 0.00 | 0.00 | 86 | 972.2 |
| 20260905042018 | 13 | 188 | 1.6 | 1.6 | 0.00 | 0.00 | 0.00 | 86 | 972.1 |
| 20260905041533 | 12 | 188 | 0.0 | 1.6 | 0.00 | 0.00 | 0.00 | 86 | 972.1 |
| 20260905041128 | 12 | 188 | 0.0 | 1.6 | 0.00 | 0.00 | 0.00 | 86 | 972.1 |
| 20260905040643 | 12 | 188 | 0.0 | 4.8 | 0.00 | 0.00 | 0.00 | 85 | 972.1 |
| 20260905040153 | 12 | 188 | 3.2 | 0.0 | 0.00 | 0.00 | 0.00 | 85 | 971.9 |
| 20260905035743 | 12 | 188 | 3.2 | 0.0 | 0.00 | 0.00 | 0.00 | 85 | 971.8 |
| 20260905035313 | 12 | 217 | 1.6 | 0.0 | 0.00 | 0.00 | 0.00 | 85 | 971.8 |
| 20260905034843 | 12 | 217 | 1.6 | 1.6 | 0.00 | 0.00 | 0.00 | 85 | 971.9 |
| 20260905034418 | 12 | 217 | 0.0 | 1.6 | 0.00 | 0.00 | 0.00 | 84 | 971.9 |
| 20260905033938 | 12 | 236 | 4.8 | 4.8 | 0.00 | 0.00 | 0.00 | 84 | 971.7 |
| 20260905033513 | 12 | 236 | 1.6 | 4.8 | 0.00 | 0.00 | 0.00 | 84 | 972.0 |
| 20260905033033 | 12 | 105 | 0.0 | 4.8 | 0.00 | 0.00 | 0.00 | 84 | 971.8 |
| 20260905032558 | 12 | 105 | 1.6 | 4.8 | 0.00 | 0.00 | 0.00 | 84 | 971.7 |
| 20260905032113 | 12 | 151 | 4.8 | 4.8 | 0.00 | 0.00 | 0.00 | 84 | 971.9 |
| 20260905031638 | 12 | 151 | 0.0 | 0.0 | 0.00 | 0.00 | 0.00 | 72 | 971.7 |
| 20260905031208 | 12 | 153 | 0.0 | 0.0 | 0.00 | 0.00 | 0.00 | 72 | 972.0 |
| 20260905030808 | 12 | 335 | 0.0 | 1.6 | 0.00 | 0.00 | 0.00 | 72 | 972.0 |
| 20260905030323 | 12 | 335 | 0.0 | 8.0 | 0.00 | 0.00 | 0.00 | 72 | 971.9 |
| 20260905025908 | 12 | 152 | 3.2 | 8.0 | 0.00 | 0.00 | 0.00 | 72 | 972.0 |
| 20260905025433 | 12 | 152 | 4.8 | 11.3 | 0.00 | 0.00 | 0.00 | 72 | 971.8 |
| 20260905024958 | 12 | 152 | 0.0 | 0.0 | 0.00 | 0.00 | 0.00 | 72 | 971.7 |
| 20260905024518 | 13 | 152 | 0.0 | 1.6 | 0.00 | 0.00 | 0.00 | 72 | 971.4 |
| 20260905024039 | 13 | 230 | 1.6 | 1.6 | 0.00 | 0.00 | 0.00 | 72 | 971.6 |
| 20260905023608 | 13 | 186 | 1.6 | 1.6 | 0.00 | 0.00 | 0.00 | 72 | 971.5 |
| 20260905023133 | 13 | 170 | 1.6 | 1.6 | 0.00 | 0.00 | 0.00 | 72 | 971.5 |
| 20260905022708 | 13 | 170 | 0.0 | 1.6 | 0.00 | 0.00 | 0.00 | 72 | 971.6 |
| 20260905022306 | 13 | 170 | 0.0 | 1.6 | 0.00 | 0.00 | 0.00 | 72 | 971.6 |
| 20260905021838 | 13 | 358 | 0.0 | 1.6 | 0.00 | 0.00 | 0.00 | 72 | 971.7 |
| 20260905021408 | 13 | 358 | 3.2 | 1.6 | 0.00 | 0.00 | 0.00 | 72 | 972.0 |
| 20260905020948 | 13 | 358 | 1.6 | 4.8 | 0.00 | 0.00 | 0.00 | 72 | 972.1 |
| 20260905020458 | 13 | 358 | 1.6 | 1.6 | 0.00 | 0.00 | 0.00 | 72 | 971.6 |
| 20260905020013 | 15 | 358 | 1.6 | 11.3 | 0.00 | 0.00 | 0.00 | 72 | 971.6 |
| 20260905015533 | 15 | 349 | 0.0 | 11.3 | 0.00 | 0.00 | 0.00 | 63 | 971.6 |
| 20260905015100 | 15 | 327 | 9.7 | 11.3 | 0.00 | 0.00 | 0.00 | 63 | 971.7 |
| 20260905014638 | 15 | 7 | 8.0 | 20.9 | 0.00 | 0.00 | 0.00 | 66 | 971.5 |
| 20260905014223 | 15 | 345 | 3.2 | 22.5 | 0.00 | 0.00 | 0.00 | 66 | 971.5 |
| 20260905013753 | 16 | 271 | 3.2 | 8.0 | 0.00 | 0.00 | 0.00 | 66 | 971.4 |
| 20260905013328 | 16 | 271 | 1.6 | 1.6 | 0.00 | 0.00 | 0.00 | 66 | 971.5 |
| 20260905012848 | 16 | 271 | 3.2 | 8.0 | 0.00 | 0.00 | 0.00 | 66 | 971.6 |
| 20260905012418 | 16 | 271 | 6.4 | 8.0 | 0.00 | 0.00 | 0.00 | 66 | 971.5 |
| 20260905012013 | 16 | 271 | 6.4 | 4.8 | 0.00 | 0.00 | 0.00 | 66 | 971.5 |